User: anonymous   Login
Location: Unspecified
(0.0000°N, 0.0000°E)
Time: 01:38:39
(UTC+00:00)
Language:

USA 202 - Orbit

View from above orbital plane
View from above orbital plane
View from above satellite
View from above satellite

Ground track
Ground track

The orbit data is extracted from the following two-line orbital elements,

1 33490U 09001A   17066.49884079 0.00000000  00000-0  00000-0 0    01
2 33490   4.7586  29.1361 0004213 337.6688  22.3145  1.00270000    01
Epoch (UTC): 07 March 2017 11:58:19
Eccentricity: 0.0004213
inclination: 4.7586°
perigee height: 35769 km
apogee height: 35804 km
right ascension of ascending node: 29.1361°
argument of perigee: 337.6688°
revolutions per day: 1.00270000
mean anomaly at epoch: 22.3145°
orbit number at epoch: 0

The dashed part of the orbit path shows where the satellite is in the earth's shadow,  

DLR